Ketchikan, AK

2:18 AM AKST on January 21, 2019 (GMT -0900)
Ketchikan International

Weather History for PAKT - December, 2018

Change the Weather History Date:

Tuesday, December 18, 2018

  Actual Average Record
Temperature  
Mean Temperature 44 °F -  
Max Temperature 48 °F 39 °F 56 °F (1981)
Min Temperature 41 °F 29 °F 14 °F (1984)
Degree Days  
Heating Degree Days 20    
Moisture  
Dew Point 41 °F    
Average Humidity 85    
Maximum Humidity 93    
Minimum Humidity 73    
Precipitation  
Precipitation 0.36 in - - ()
Sea Level Pressure  
Sea Level Pressure 29.17 in    
Wind  
Wind Speed 20 mph (SE)    
Max Wind Speed 34 mph    
Max Gust Speed 46 mph    
Visibility 8 miles    
Events Rain    
Averages and records for this station are not official NWS values.
T = Trace of Precipitation, MM = Missing Value Source: NWS Daily Summary

Daily Weather History Graph

Daily Weather History Graph

Search for Another Location

Airport or City:

Astronomy

Dec. 18, 2018 Rise Set
Actual Time 8:10 AM AKST 3:16 PM AKST
Civil Twilight 7:24 AM AKST 4:02 PM AKST
Nautical Twilight 6:36 AM AKST 4:51 PM AKST
Astronomical Twilight 5:51 AM AKST 5:35 PM AKST
Moon 1:30 PM AKST (12/18) 2:41 AM AKST (12/18)
Length of Visible Light 8h 38m
Length of Day
7h 06m
Waxing Gibbous, 82% of the Moon is Illuminated
Dec 18
Waxing Gibbous
Dec 22
Full
Dec 29
Last Quarter
Jan 5
New
Jan 13
First Quarter

Hourly Weather History & Observations

Time (AKST) Temp. Windchill Dew Point Humidity Pressure Visibility Wind Dir Wind Speed Gust Speed Precip Events Conditions
12:09 AM 44.1 °F 35.7 °F 39.0 °F 82% 28.87 in 4.0 mi SE 20.7 mph 32.2 mph 0.02 in Rain Light Rain
12:53 AM 44.1 °F 34.8 °F 39.0 °F 82% 28.87 in 5.0 mi SE 25.3 mph 40.3 mph 0.10 in Rain Light Rain
1:53 AM 44.1 °F 33.3 °F 39.0 °F 82% 28.87 in 6.0 mi ESE 34.5 mph 46.0 mph 0.07 in Rain Light Rain
2:53 AM 45.0 °F 36.6 °F 41.0 °F 86% 28.88 in 10.0 mi SE 21.9 mph 38.0 mph 0.04 in Rain Light Rain
3:53 AM 45.0 °F 36.9 °F 42.1 °F 90% 28.90 in 9.0 mi SE 20.7 mph 32.2 mph 0.03 in Rain Light Rain
4:53 AM 46.9 °F - 42.1 °F 83% 28.92 in 5.0 mi SE 33.4 mph 43.7 mph 0.12 in Rain Light Rain
5:40 AM 48.0 °F - 43.0 °F 83% 28.95 in 10.0 mi SE 25.3 mph 39.1 mph 0.01 in   Overcast
6:04 AM 48.2 °F - 42.8 °F 82% 28.96 in 10.0 mi SE 25.3 mph 42.6 mph N/A   Overcast
7:53 AM 48.2 °F - 42.8 °F 82% 29.02 in 10.0 mi SE 18.4 mph 29.9 mph N/A   Overcast
8:53 AM 48.2 °F - 42.8 °F 82% 29.03 in 10.0 mi SE 21.9 mph 33.4 mph N/A   Overcast
9:53 AM 48.2 °F - 42.8 °F 82% 29.06 in 10.0 mi SE 18.4 mph 35.7 mph N/A   Mostly Cloudy
10:53 AM 46.4 °F 39.2 °F 42.8 °F 87% 29.08 in 10.0 mi SE 18.4 mph 27.6 mph N/A   Mostly Cloudy
11:53 AM 46.4 °F 39.8 °F 41.0 °F 81% 29.11 in 8.0 mi SSE 16.1 mph 35.7 mph N/A Rain Light Rain
12:53 PM 46.4 °F 39.8 °F 42.8 °F 87% 29.12 in 10.0 mi SE 16.1 mph 26.5 mph N/A   Overcast
1:51 PM 44.6 °F 36.4 °F 41.0 °F 87% 29.14 in 10.0 mi SE 20.7 mph 27.6 mph N/A Rain Light Rain
1:53 PM 44.6 °F 36.4 °F 41.0 °F 87% 29.14 in 10.0 mi SE 20.7 mph - N/A Rain Light Rain
2:51 PM 44.6 °F 36.1 °F 41.0 °F 87% 29.16 in 10.0 mi SE 21.9 mph 28.8 mph N/A   Overcast
2:53 PM 44.6 °F 37.2 °F 41.0 °F 87% 29.16 in 10.0 mi SE 17.3 mph 26.5 mph N/A   Overcast
3:53 PM 44.6 °F 36.9 °F 42.8 °F 93% 29.19 in 10.0 mi SE 18.4 mph 27.6 mph N/A Rain Light Rain
4:53 PM 46.4 °F 38.7 °F 42.8 °F 87% 29.21 in 4.0 mi SE 20.7 mph 34.5 mph N/A Rain Light Rain
5:51 PM 44.6 °F 37.2 °F 42.8 °F 93% 29.23 in 4.0 mi SE 17.3 mph 32.2 mph N/A Rain Light Rain
5:53 PM 44.6 °F 36.9 °F 42.8 °F 93% 29.24 in 4.0 mi SE 18.4 mph 32.2 mph N/A Rain Light Rain
6:53 PM 44.6 °F 38.8 °F 41.0 °F 87% 29.30 in 6.0 mi SE 11.5 mph - N/A Rain Light Rain
7:53 PM 44.6 °F 40.7 °F 39.2 °F 81% 29.38 in 9.0 mi SE 6.9 mph - N/A Rain Light Rain
8:51 PM 42.8 °F 38.0 °F 39.2 °F 87% 29.45 in 10.0 mi SE 8.1 mph - N/A   Overcast
8:53 PM 42.8 °F 38.6 °F 39.2 °F 87% 29.45 in 10.0 mi SE 6.9 mph - N/A   Overcast
9:26 PM 43.0 °F 40.3 °F 37.9 °F 82% 29.49 in 10.0 mi SE 4.6 mph - N/A   Overcast
9:53 PM 43.0 °F 39.5 °F 37.0 °F 80% 29.53 in 10.0 mi SSE 5.8 mph - N/A   Overcast
10:53 PM 41.0 °F - 36.0 °F 82% 29.60 in 10.0 mi Calm Calm - 0.00 in   Mostly Cloudy
11:53 PM 42.1 °F - 34.0 °F 73% 29.66 in 10.0 mi Calm Calm - N/A   Overcast